Regional Weather Roundup
Issued by NWS Mobile, AL

Home | Current Version | Previous Version | Text Only | Print | Product List | Glossary On
Versions: 1 2 3 4 5 6 7 8 9 10 11 12 13 14 15 16 17 18 19 20 21 22 23 24 25 26 27 28 29 30 31 32 33 34 35 36 37 38 39
000
ASUS44 KMOB 271910
RWRMOB
REGIONAL WEATHER ROUNDUP
NATIONAL WEATHER SERVICE MOBILE AL
100 PM CST SAT DEC 27 2014

NOTE: "FAIR" INDICATES FEW OR NO CLOUDS BELOW 12,000 FEET WITH NO
      SIGNIFICANT WEATHER AND/OR OBSTRUCTIONS TO VISIBILITY.

  * THESE STATIONS ARE PART OF THE UNIVERSITY OF SOUTH ALABAMA
    MESONET AND ARE NOT UNDER NWS OR FAA QUALITY CONTROL.

ALZ061>064-272000-
COASTAL ALABAMA

CITY           SKY/WX    TMP DP  RH WIND       PRES   REMARKS
MOBILE REG APT CLOUDY    60  60 100 E12       30.14F FOG
BROOKLEY FIELD LGT RAIN  59  58  96 NE7       30.16F FOG
USA CAMPUS*      N/A     61  59  94 E5        30.14
DOG RIVER*     NOT AVBL


CITY           SKY/WX    TMP DP  RH WIND       PRES   REMARKS
MOUNT VERNON*  NOT AVBL
SARALAND*      NOT AVBL
BAY MINETTE*   NOT AVBL
LOXLEY*          N/A     59  59 100 NE7       30.16F
ROBERTSDALE*     N/A     61  59  94 SE3       30.16F
FAIRHOPE*        N/A     61  59  94 E7        30.15F
ELBERTA*         N/A     66  63  88 NE5       30.15
FOLEY*           N/A     63  55  77 CALM      30.13F
GRAND BAY*     NOT AVBL
DAUPHIN ISLND* NOT AVBL
BON SCOUR NWR* NOT AVBL
GULF SHORES    DRIZZLE   67  64  89 SE7       30.15F

$$

ALZ051>060-272000-
INTERIOR SOUTHWEST AND SOUTH CENTRAL ALABAMA

CITY           SKY/WX    TMP DP  RH WIND       PRES   REMARKS
GREENVILLE     HVY RAIN  56  52  86 CALM      30.19F FOG
EVERGREEN      HVY RAIN  56  53  90 E3        30.22R FOG
CASTLEBERRY*   NOT AVBL
ATMORE*          N/A     55  55 100 NW5       30.23F
DIXIE*         NOT AVBL
ANDALUSIA/OPP  CLOUDY    64  52  64 SE5       30.17F
ANDALUSIA*       N/A     59  54  82 SE7       30.17F
FLORALA APT    CLOUDY    64  54  69 E5        30.17F
FLORALA*         N/A     63  55  77 CALM      30.13F

$$

FLZ001>006-272000-
WESTERN FLORIDA PANHANDLE

CITY           SKY/WX    TMP DP  RH WIND       PRES   REMARKS
PENSACOLA      CLOUDY    62  59  90 E7        30.14F
NAS PENSACOLA  LGT RAIN  67  63  87 E8        30.15F
MILTON         LGT RAIN  60  55  83 N6        30.18S
WHTNG S FIELD  LGT RAIN  62  56  80 N9        30.19R


CITY           SKY/WX    TMP DP  RH WIND       PRES   REMARKS
WALNUT HILL*   NOT AVBL
JAY*           NOT AVBL
DUKE FIELD     PTSUNNY   64  53  68 VRB6      30.17F
CRESTVIEW      CLOUDY    65  52  62 S3        30.18F
VALPARAISO     CLOUDY    62  56  83 SE9       30.17F
DESTIN         CLOUDY    62  59  90 SE9       30.16F

$$

MSZ076-079-272000-
INTERIOR SOUTHEAST MISSISSIPPI

CITY           SKY/WX    TMP DP  RH WIND       PRES   REMARKS
LEAKESVILLE*   NOT AVBL
AGRICOLA*      NOT AVBL

$$

MARINE OBSERVATIONS

STATION/POSITION TIME  TEMP    WIND        PRES    WAVE
                       AIR SEA DIR/SP/G            HT/PER
                 (UTC) (F)     (DEG/KT/KT) (MB)    (FT/S)
PASCAGOULA       1900   65     100/ 10/ 15 1019.4F
PETIT BOIS ISLND 1900   68     100/  8/ 11 1020.0F
GRAND BAY        1800   63      80/  9     1022.0S
KATRINA CUT      1800   63      90/ 11     1021.3F
CEDAR POINT      1800   60      50/  9     1021.0F
E DAUPHIN ISLAND 1800   66     110/  9/  9 1020.7F
MIDDLE BAY LIGHT 1800   58      30/ 10     1020.3F
USCG MOBILE BAY  1900   58 57   60/  9/ 10 1019.7F
STATE DOCKS      1900   59 56              1020.7S
MEAHER PARK      1800   59      60/  4     1021.0F
WEEKS BAY        1800   69                   N/A
FORT MORGAN      1900   67     150/  7/  8 1020.3S
12 S ORANGE BCH  1900   70 68  140/ 14/ 16 1019.5F   4/ 6
PENSACOLA BAY    1900   64 60   CALM  /  4 1021.2F
64 S DAUPHIN ISL 1900   73 74  160/ 17/ 23 1019.4F   6/ 6

$$

SELECTED LOCATIONS ACROSS THE REGION

CITY           SKY/WX    TMP DP  RH WIND       PRES   REMARKS
NEW ORLEANS    LGT RAIN  69  66  90 S12       30.07F FOG
GULFPORT       LGT RAIN  65  63  93 SE9       30.10F FOG
PASCAGOULA AP  CLOUDY    64  63  96 E6        30.12F
PASCAGOULA*      N/A     63  63 100 SE2       30.12F
HATTIESBURG    TSTM      59  58  96 SE12      30.14F VSB 1/2
LAUREL         CLOUDY    55  54  94 SE6       30.14F
MERIDIAN       RAIN      55  53  93 SE9       30.13F
JACKSON        CLOUDY    61  58  90 S9        30.10F
MONTGOMERY     CLOUDY    59  47  64 E6        30.20F
TROY           CLOUDY    64  51  62 S7        30.19F
KINSTON*       NOT AVBL
GENEVA*          N/A     66  54  63 S3        30.20F
ASHFORD*         N/A     59  54  82 SE7       30.17F
DOTHAN         PTSUNNY   70  53  54 SE9       30.19F
PANAMA CITY    PTSUNNY   68  54  60 SE9       30.16F

$$



USA.gov is the U.S. government's official web portal to all federal, state and local government web resources and services.